Date,TemperatureHighF,TemperatureAvgF,TemperatureLowF,DewpointHighF,DewpointAvgF,DewpointLowF,HumidityHigh,HumidityAvg,HumidityLow,PressureMaxIn,PressureMinIn,WindSpeedMaxMPH,WindSpeedAvgMPH,GustSpeedMaxMPH,PrecipitationSumIn
2013-10-1,80.1,65.8,55.2,60.4,56.3,52.6,95,74,44,29.92,29.92,9,3,11,0.00
2013-10-2,84.0,68.7,56.7,63.4,58.9,55.7,97,74,43,29.92,29.92,10,4,11,0.00
2013-10-3,83.3,71.5,62.2,62.0,57.9,53.8,84,65,41,29.92,29.92,11,4,12,0.00
2013-10-4,87.8,71.6,59.5,62.2,58.5,56.0,92,67,39,29.92,29.92,10,5,12,0.00
2013-10-5,91.4,74.2,61.9,64.1,60.0,55.0,92,66,34,29.92,29.92,11,4,12,0.00
2013-10-6,82.8,70.5,63.0,62.8,60.0,57.5,97,72,46,29.92,29.92,15,5,15,0.22
2013-10-7,66.9,57.2,51.4,61.9,51.2,46.8,99,82,57,29.92,29.92,30,8,30,0.45
2013-10-8,81.1,62.3,46.4,56.0,51.0,45.5,99,71,39,29.92,29.92,15,4,16,0.00
2013-10-9,75.9,62.8,51.8,57.0,53.2,48.1,90,73,51,29.92,29.92,15,5,18,0.00
2013-10-10,70.3,60.7,50.7,56.3,51.1,47.6,99,74,48,29.92,29.92,19,6,21,0.01
2013-10-11,74.5,62.8,51.4,56.6,52.9,49.1,97,73,49,29.92,29.92,15,6,17,0.00
2013-10-12,75.7,63.4,52.5,57.8,53.4,50.5,98,73,46,29.92,29.92,17,5,18,0.00
2013-10-13,75.6,63.6,54.3,60.4,56.8,52.6,98,80,54,29.92,29.92,11,3,12,0.00
2013-10-14,81.9,67.2,58.3,62.0,57.7,54.2,99,75,43,29.92,29.92,8,3,11,0.00
2013-10-15,72.7,63.1,56.1,59.4,55.5,53.7,93,78,57,29.92,29.92,11,3,11,0.00
2013-10-16,70.0,62.0,55.8,58.2,56.1,53.6,93,82,64,29.92,29.92,8,2,8,0.00
2013-10-17,64.6,59.9,52.7,64.3,59.3,52.2,99,98,94,29.92,29.92,16,7,22,0.15
2013-10-18,69.8,55.7,48.0,59.3,49.3,46.1,99,82,49,29.92,29.92,11,4,12,0.00
2013-10-19,65.1,54.3,47.8,54.6,49.6,46.1,99,85,55,29.92,29.92,15,5,17,0.00
2013-10-20,67.1,51.0,39.7,45.2,38.7,20.8,99,70,23,29.92,29.92,10,4,11,0.00
2013-10-21,72.1,57.7,45.9,50.4,44.7,38.6,89,66,34,29.92,29.92,12,5,17,0.00
2013-10-22,68.4,58.1,51.8,54.2,48.1,43.3,91,72,44,29.92,29.92,12,6,17,0.00
2013-10-23,49.1,44.5,37.2,46.5,35.2,28.3,92,71,52,29.92,29.92,38,14,38,0.00
2013-10-24,55.6,43.9,34.5,38.6,33.7,28.1,87,69,44,29.92,29.92,21,6,21,0.00
2013-10-25,52.0,38.9,28.0,26.5,21.4,9.2,81,54,21,29.92,29.92,17,7,19,0.00
2013-10-26,59.4,45.0,31.3,31.7,25.5,10.7,81,52,20,29.92,29.92,21,6,21,0.00
2013-10-27,63.0,53.9,46.9,50.6,42.2,32.0,90,66,49,29.92,29.92,11,3,11,0.00
2013-10-28,60.8,54.9,50.9,55.8,51.1,48.5,99,87,74,29.92,29.92,15,4,15,0.07
2013-10-29,72.7,57.0,45.9,58.0,50.8,45.1,99,82,46,29.92,29.92,11,3,11,0.00
2013-10-30,76.8,65.2,56.7,54.6,52.8,50.8,85,67,44,29.92,29.92,13,5,15,0.00
2013-10-31,67.3,63.1,59.9,59.2,54.2,49.2,90,74,61,29.92,29.92,26,9,30,0.02